Time,TemperatureF,DewpointF,PressureIn,WindDirection,WindDirectionDegrees,WindSpeedMPH,WindSpeedGustMPH,Humidity,HourlyPrecipIn,Conditions,Clouds,dailyrainin,SolarRadiationWatts/m^2,SoftwareType,DateUTC
2013-01-17 00:02:00,43.0,10.0,-100.00,North,8,8.0,15.0,26,0.00,,,0.00,0.000000,,2013-01-17 08:02:00,
2013-01-17 00:22:00,43.0,10.0,-100.00,North,8,8.0,15.0,26,0.00,,,0.00,0.000000,,2013-01-17 08:22:00,
2013-01-17 00:32:00,43.0,10.0,-100.00,North,8,8.0,15.0,26,0.00,,,0.00,0.000000,,2013-01-17 08:32:00,
2013-01-17 00:43:00,43.0,10.0,-100.00,North,8,8.0,15.0,26,0.00,,,0.00,0.000000,,2013-01-17 08:43:00,
2013-01-17 00:52:00,43.0,10.0,-100.00,North,8,8.0,15.0,26,0.00,,,0.00,0.000000,,2013-01-17 08:52:00,
2013-01-17 01:02:00,42.0,11.0,-100.00,North,355,10.0,18.0,28,0.00,,,0.00,0.000000,,2013-01-17 09:02:00,
2013-01-17 01:33:00,42.0,11.0,-100.00,North,355,10.0,18.0,28,0.00,,,0.00,0.000000,,2013-01-17 09:33:00,
2013-01-17 01:42:00,42.0,11.0,-100.00,North,355,10.0,18.0,28,0.00,,,0.00,0.000000,,2013-01-17 09:42:00,
2013-01-17 01:52:00,42.0,11.0,-100.00,North,355,10.0,18.0,28,0.00,,,0.00,0.000000,,2013-01-17 09:52:00,
2013-01-17 02:02:00,42.0,11.0,-100.00,NNW,337,11.0,17.0,28,0.00,,,0.00,0.000000,,2013-01-17 10:02:00,
2013-01-17 02:33:00,42.0,11.0,-100.00,NNW,337,11.0,17.0,28,0.00,,,0.00,0.000000,,2013-01-17 10:33:00,
2013-01-17 02:43:00,42.0,11.0,-100.00,NNW,337,11.0,17.0,28,0.00,,,0.00,0.000000,,2013-01-17 10:43:00,
2013-01-17 02:53:00,42.0,11.0,-100.00,NNW,337,11.0,17.0,28,0.00,,,0.00,0.000000,,2013-01-17 10:53:00,
2013-01-17 03:02:00,42.0,11.0,-100.00,NNW,346,9.0,18.0,28,0.00,,,0.00,0.000000,,2013-01-17 11:02:00,
2013-01-17 03:23:00,42.0,11.0,-100.00,NNW,346,9.0,18.0,28,0.00,,,0.00,0.000000,,2013-01-17 11:23:00,
2013-01-17 03:33:00,42.0,11.0,-100.00,NNW,346,9.0,18.0,28,0.00,,,0.00,0.000000,,2013-01-17 11:33:00,
2013-01-17 03:43:00,42.0,11.0,-100.00,NNW,346,9.0,18.0,28,0.00,,,0.00,0.000000,,2013-01-17 11:43:00,
2013-01-17 03:53:00,42.0,11.0,-100.00,NNW,346,9.0,18.0,28,0.00,,,0.00,0.000000,,2013-01-17 11:53:00,
2013-01-17 04:02:00,40.0,11.0,-100.00,NNW,343,9.0,16.0,30,0.00,,,0.00,0.000000,,2013-01-17 12:02:00,
2013-01-17 04:23:00,40.0,11.0,-100.00,NNW,343,9.0,16.0,30,0.00,,,0.00,0.000000,,2013-01-17 12:23:00,
2013-01-17 04:33:00,40.0,11.0,-100.00,NNW,343,9.0,16.0,30,0.00,,,0.00,0.000000,,2013-01-17 12:33:00,
2013-01-17 04:43:00,40.0,11.0,-100.00,NNW,343,9.0,16.0,30,0.00,,,0.00,0.000000,,2013-01-17 12:43:00,
2013-01-17 04:53:00,40.0,11.0,-100.00,NNW,343,9.0,16.0,30,0.00,,,0.00,0.000000,,2013-01-17 12:53:00,
2013-01-17 05:02:00,40.0,10.0,-100.00,NNW,341,11.0,17.0,29,0.00,,,0.00,0.000000,,2013-01-17 13:02:00,
2013-01-17 05:33:00,40.0,10.0,-100.00,NNW,341,11.0,17.0,29,0.00,,,0.00,0.000000,,2013-01-17 13:33:00,
2013-01-17 05:43:00,40.0,10.0,-100.00,NNW,341,11.0,17.0,29,0.00,,,0.00,0.000000,,2013-01-17 13:43:00,
2013-01-17 05:53:00,40.0,10.0,-100.00,NNW,341,11.0,17.0,29,0.00,,,0.00,0.000000,,2013-01-17 13:53:00,
2013-01-17 06:02:00,40.0,10.0,-100.00,NNW,338,12.0,21.0,28,0.00,,,0.00,0.000000,,2013-01-17 14:02:00,
2013-01-17 06:33:00,40.0,10.0,-100.00,NNW,338,12.0,21.0,28,0.00,,,0.00,0.000000,,2013-01-17 14:33:00,
2013-01-17 06:43:00,40.0,10.0,-100.00,NNW,338,12.0,21.0,28,0.00,,,0.00,0.000000,,2013-01-17 14:43:00,
2013-01-17 06:53:00,40.0,10.0,-100.00,NNW,338,12.0,21.0,28,0.00,,,0.00,0.000000,,2013-01-17 14:53:00,
2013-01-17 07:02:00,40.0,10.0,-100.00,NNW,327,12.0,22.0,29,0.00,,,-99.99,2.000000,,2013-01-17 15:02:00,
2013-01-17 07:33:00,40.0,10.0,-100.00,NNW,327,12.0,22.0,29,0.00,,,-99.99,2.000000,,2013-01-17 15:33:00,
2013-01-17 07:43:00,40.0,10.0,-100.00,NNW,327,12.0,22.0,29,0.00,,,-99.99,2.000000,,2013-01-17 15:43:00,
2013-01-17 07:53:00,40.0,10.0,-100.00,NNW,327,12.0,22.0,29,0.00,,,-99.99,2.000000,,2013-01-17 15:53:00,
2013-01-17 08:02:00,42.0,10.0,-100.00,North,349,8.0,20.0,27,0.00,,,0.00,75.000000,,2013-01-17 16:02:00,
2013-01-17 08:33:00,42.0,10.0,-100.00,North,349,8.0,20.0,27,0.00,,,0.00,75.000000,,2013-01-17 16:33:00,
2013-01-17 08:44:00,42.0,10.0,-100.00,North,349,8.0,20.0,27,0.00,,,0.00,75.000000,,2013-01-17 16:44:00,
2013-01-17 08:53:00,42.0,10.0,-100.00,North,349,8.0,20.0,27,0.00,,,0.00,75.000000,,2013-01-17 16:53:00,
2013-01-17 09:02:00,45.0,8.0,-100.00,North,354,9.0,19.0,22,0.00,,,0.00,309.000000,,2013-01-17 17:02:00,
2013-01-17 09:33:00,45.0,8.0,-100.00,North,354,9.0,19.0,22,0.00,,,0.00,309.000000,,2013-01-17 17:33:00,
2013-01-17 09:43:00,45.0,8.0,-100.00,North,354,9.0,19.0,22,0.00,,,0.00,309.000000,,2013-01-17 17:43:00,
2013-01-17 09:53:00,45.0,8.0,-100.00,North,354,9.0,19.0,22,0.00,,,0.00,309.000000,,2013-01-17 17:53:00,
2013-01-17 10:02:00,47.0,10.0,-100.00,NW,325,9.0,17.0,22,0.00,,,0.00,513.000000,,2013-01-17 18:02:00,
2013-01-17 10:23:00,47.0,10.0,-100.00,NW,325,9.0,17.0,22,0.00,,,0.00,513.000000,,2013-01-17 18:23:00,
2013-01-17 10:34:00,47.0,10.0,-100.00,NW,325,9.0,17.0,22,0.00,,,0.00,513.000000,,2013-01-17 18:34:00,
2013-01-17 10:44:00,47.0,10.0,-100.00,NW,325,9.0,17.0,22,0.00,,,0.00,513.000000,,2013-01-17 18:44:00,
2013-01-17 10:53:00,47.0,10.0,-100.00,NW,325,9.0,17.0,22,0.00,,,0.00,513.000000,,2013-01-17 18:53:00,
2013-01-17 13:02:00,49.0,12.0,-100.00,WNW,296,9.0,17.0,22,-99.99,,,0.00,773.000000,,2013-01-17 21:02:00,
2013-01-17 13:34:00,49.0,12.0,-100.00,WNW,296,9.0,17.0,22,-99.99,,,0.00,773.000000,,2013-01-17 21:34:00,
2013-01-17 13:43:00,49.0,12.0,-100.00,WNW,296,9.0,17.0,22,-99.99,,,0.00,773.000000,,2013-01-17 21:43:00,
2013-01-17 13:53:00,49.0,12.0,-100.00,WNW,296,9.0,17.0,22,-99.99,,,0.00,773.000000,,2013-01-17 21:53:00,
2013-01-17 14:02:00,51.0,9.0,-100.00,NNW,330,9.0,18.0,18,0.00,,,0.00,712.000000,,2013-01-17 22:02:00,
2013-01-17 14:23:00,51.0,9.0,-100.00,NNW,330,9.0,18.0,18,0.00,,,0.00,712.000000,,2013-01-17 22:23:00,
2013-01-17 14:33:00,51.0,9.0,-100.00,NNW,330,9.0,18.0,18,0.00,,,0.00,712.000000,,2013-01-17 22:33:00,
2013-01-17 14:43:00,51.0,9.0,-100.00,NNW,330,9.0,18.0,18,0.00,,,0.00,712.000000,,2013-01-17 22:43:00,
2013-01-17 14:52:00,51.0,9.0,-100.00,NNW,330,9.0,18.0,18,0.00,,,0.00,712.000000,,2013-01-17 22:52:00,
2013-01-17 15:02:00,51.0,9.0,-100.00,NW,306,8.0,17.0,18,0.00,,,0.00,580.000000,,2013-01-17 23:02:00,
2013-01-17 15:33:00,51.0,9.0,-100.00,NW,306,8.0,17.0,18,0.00,,,0.00,580.000000,,2013-01-17 23:33:00,
2013-01-17 15:43:00,51.0,9.0,-100.00,NW,306,8.0,17.0,18,0.00,,,0.00,580.000000,,2013-01-17 23:43:00,
2013-01-17 15:53:00,51.0,9.0,-100.00,NW,306,8.0,17.0,18,0.00,,,0.00,580.000000,,2013-01-17 23:53:00,
2013-01-17 16:02:00,50.0,9.0,-100.00,NW,312,7.0,14.0,19,0.00,,,0.00,388.000000,,2013-01-18 00:02:00,
2013-01-17 16:23:00,50.0,9.0,-100.00,NW,312,7.0,14.0,19,0.00,,,0.00,388.000000,,2013-01-18 00:23:00,
2013-01-17 16:33:00,50.0,9.0,-100.00,NW,312,7.0,14.0,19,0.00,,,0.00,388.000000,,2013-01-18 00:33:00,
2013-01-17 16:43:00,50.0,9.0,-100.00,NW,312,7.0,14.0,19,0.00,,,0.00,388.000000,,2013-01-18 00:43:00,
2013-01-17 16:52:00,50.0,9.0,-100.00,NW,312,7.0,14.0,19,0.00,,,0.00,388.000000,,2013-01-18 00:52:00,
2013-01-17 17:02:00,45.0,8.0,-100.00,WNW,292,4.0,15.0,22,0.00,,,0.00,144.000000,,2013-01-18 01:02:00,
2013-01-17 17:33:00,45.0,8.0,-100.00,WNW,292,4.0,15.0,22,0.00,,,0.00,144.000000,,2013-01-18 01:33:00,
2013-01-17 17:43:00,45.0,8.0,-100.00,WNW,292,4.0,15.0,22,0.00,,,0.00,144.000000,,2013-01-18 01:43:00,
2013-01-17 17:52:00,45.0,8.0,-100.00,WNW,292,4.0,15.0,22,0.00,,,0.00,144.000000,,2013-01-18 01:52:00,
2013-01-17 18:02:00,42.0,9.0,-100.00,NE,36,3.0,10.0,25,0.00,,,0.00,2.000000,,2013-01-18 02:02:00,
2013-01-17 18:33:00,42.0,9.0,-100.00,NE,36,3.0,10.0,25,0.00,,,0.00,2.000000,,2013-01-18 02:33:00,
2013-01-17 18:43:00,42.0,9.0,-100.00,NE,36,3.0,10.0,25,0.00,,,0.00,2.000000,,2013-01-18 02:43:00,
2013-01-17 18:53:00,42.0,9.0,-100.00,NE,36,3.0,10.0,25,0.00,,,0.00,2.000000,,2013-01-18 02:53:00,
2013-01-17 19:02:00,39.0,8.0,-100.00,East,98,2.0,5.0,27,0.00,,,0.00,0.000000,,2013-01-18 03:02:00,
2013-01-17 19:33:00,39.0,8.0,-100.00,East,98,2.0,5.0,27,0.00,,,0.00,0.000000,,2013-01-18 03:33:00,
2013-01-17 19:43:00,39.0,8.0,-100.00,East,98,2.0,5.0,27,0.00,,,0.00,0.000000,,2013-01-18 03:43:00,
2013-01-17 19:52:00,39.0,8.0,-100.00,East,98,2.0,5.0,27,0.00,,,0.00,0.000000,,2013-01-18 03:52:00,
2013-01-17 20:02:00,39.0,9.0,-100.00,SW,215,2.0,5.0,29,0.00,,,0.00,0.000000,,2013-01-18 04:02:00,
2013-01-17 20:33:00,39.0,9.0,-100.00,SW,215,2.0,5.0,29,0.00,,,0.00,0.000000,,2013-01-18 04:33:00,
2013-01-17 20:42:00,39.0,9.0,-100.00,SW,215,2.0,5.0,29,0.00,,,0.00,0.000000,,2013-01-18 04:42:00,
2013-01-17 20:53:00,39.0,9.0,-100.00,SW,215,2.0,5.0,29,0.00,,,0.00,0.000000,,2013-01-18 04:53:00,
2013-01-17 21:02:00,39.0,9.0,-100.00,SSW,208,4.0,5.0,29,0.00,,,0.00,0.000000,,2013-01-18 05:02:00,
2013-01-17 21:22:00,39.0,9.0,-100.00,SSW,208,4.0,5.0,29,0.00,,,0.00,0.000000,,2013-01-18 05:22:00,
2013-01-17 21:33:00,39.0,9.0,-100.00,SSW,208,4.0,5.0,29,0.00,,,0.00,0.000000,,2013-01-18 05:33:00,
2013-01-17 21:43:00,39.0,9.0,-100.00,SSW,208,4.0,5.0,29,0.00,,,0.00,0.000000,,2013-01-18 05:43:00,
2013-01-17 21:53:00,39.0,9.0,-100.00,SSW,208,4.0,5.0,29,0.00,,,0.00,0.000000,,2013-01-18 05:53:00,
2013-01-17 22:02:00,37.0,9.0,-100.00,SSW,195,3.0,5.0,31,0.00,,,0.00,0.000000,,2013-01-18 06:02:00,
2013-01-17 22:33:00,37.0,9.0,-100.00,SSW,195,3.0,5.0,31,0.00,,,0.00,0.000000,,2013-01-18 06:33:00,
2013-01-17 22:43:00,37.0,9.0,-100.00,SSW,195,3.0,5.0,31,0.00,,,0.00,0.000000,,2013-01-18 06:43:00,
2013-01-17 22:52:00,37.0,9.0,-100.00,SSW,195,3.0,5.0,31,0.00,,,0.00,0.000000,,2013-01-18 06:52:00,
2013-01-17 23:02:00,36.0,10.0,-100.00,South,188,3.0,5.0,33,0.00,,,0.00,0.000000,,2013-01-18 07:02:00,
2013-01-17 23:33:00,36.0,10.0,-100.00,South,188,3.0,5.0,33,0.00,,,0.00,0.000000,,2013-01-18 07:33:00,
2013-01-17 23:42:00,36.0,10.0,-100.00,South,188,3.0,5.0,33,0.00,,,0.00,0.000000,,2013-01-18 07:42:00,
2013-01-17 23:52:00,36.0,10.0,-100.00,South,188,3.0,5.0,33,0.00,,,0.00,0.000000,,2013-01-18 07:52:00,